Simultaneous Nadir Overpasses (SNOs) Predictions

Prediction of SNOs between GOES-16 and NPP Satellite Orbit:

Table of predicted SNOs for the next 14.0 days since TLE Epoch: 8/31/2024
Index Date Time (GOES-16) GOES-16 Lat,Lon NPP Lat,Lon Distance(km) Time Diff (sec)
1 09/01/2024 06:32:46 0.05, -75.20 0.35, -76.61 160.43 80
2 09/02/2024 06:11:21 0.05, -75.21 -0.67, -72.08 356.99 80
3 09/03/2024 18:33:16 -0.04, -75.23 -0.51, -77.38 244.86 80
4 09/04/2024 18:17:11 -0.05, -75.24 0.51, -72.85 273.23 80
5 09/06/2024 06:38:56 0.04, -75.25 0.70, -78.10 325.34 80
6 09/07/2024 06:17:30 0.04, -75.26 -0.33, -73.57 193.00 80
7 09/08/2024 18:39:26 -0.04, -75.29 -0.81, -78.88 407.87 80
8 09/09/2024 18:23:19 -0.04, -75.31 0.17, -74.33 110.65 80
9 09/11/2024 06:45:05 0.03, -75.32 0.97, -79.60 487.43 80
10 09/12/2024 06:23:39 0.03, -75.34 -0.02, -75.06 31.07 80
